This demonstration page uses our WeatherBlox Daily Observations layout. Learn more.

Left ArrowRight Arrow

44.8408, -93.29828

Hourly Observations for August 31, 2016

Temp ( °F °C ) Dew Point ( °F °C ) Humidity (%) Winds ( mph kmh ) Pressure ( in mb ) Visibility ( mi km ) Precip ( " mm )
12:53 am 00:53 Clear 64 17.8 55 12.8 73 73 N 6 9 30.17 1022 10 16 0.00 0.00
1:53 am 01:53 Clear 63 17.2 54 12.2 73 73 N 3 6 30.18 1022 10 16 0.00 0.00
2:53 am 02:53 Clear 63 17.2 53 11.7 70 70 Calm 30.18 1022 10 16 0.00 0.00
3:53 am 03:53 Clear 61 16.1 54 12.2 78 78 Calm 30.18 1022 9 14 0.00 0.00
4:53 am 04:53 Clear 60 15.6 56 13.3 86 86 NNW 3 6 30.19 1022 10 16 0.00 0.00
5:53 am 05:53 Partly Cloudy 59 15 55 12.8 87 87 Calm 30.19 1022 10 16 0.00 0.00
6:53 am 06:53 Partly Cloudy 58 14.4 54 12.2 87 87 NW 3 6 30.20 1023 10 16 0.00 0.00
7:53 am 07:53 Partly Cloudy 62 16.7 55 12.8 78 78 Calm 30.20 1023 10 16 0.00 0.00
8:53 am 08:53 Mostly Sunny 66 18.9 56 13.3 70 70 NNW 3 6 30.20 1023 10 16 0.00 0.00
9:53 am 09:53 Mostly Sunny 70 21.1 54 12.2 57 57 NNW 6 9 30.21 1023 10 16 0.00 0.00
10:53 am 10:53 Mostly Sunny 73 22.8 52 11.1 48 48 NNW 8 13 30.21 1023 10 16 0.00 0.00
11:53 am 11:53 Mostly Sunny 76 24.4 51 10.6 42 42 NNE 9 15 30.20 1023 10 16 0.00 0.00
12:53 pm 12:53 Sunny 77 25 51 10.6 40 40 NNW 8 13 30.19 1022 10 16 0.00 0.00
1:53 pm 13:53 Mostly Sunny 78 25.6 51 10.6 39 39 NNW 9 15 30.19 1022 10 16 0.00 0.00
2:53 pm 14:53 Mostly Sunny 79 26.1 50 10 36 36 NNW 14 22 30.17 1022 10 16 0.00 0.00
3:53 pm 15:53 Sunny 79 26.1 50 10 36 36 N 8 13 30.16 1021 10 16 0.00 0.00
4:53 pm 16:53 Mostly Sunny 79 26.1 52 11.1 39 39 N 9 15 30.16 1021 10 16 0.00 0.00
5:53 pm 17:53 Partly Cloudy 78 25.6 51 10.6 39 39 N 10 17 30.14 1021 10 16 0.00 0.00
6:53 pm 18:53 Partly Cloudy 76 24.4 47 8.3 36 36 NNE 8 13 30.14 1021 10 16 0.00 0.00
7:53 pm 19:53 Partly Cloudy 72 22.2 48 8.9 43 43 NNE 6 9 30.15 1021 10 16 0.00 0.00
8:53 pm 20:53 Mostly Clear 70 21.1 49 9.4 47 47 N 5 7 30.17 1022 10 16 0.00 0.00
9:53 pm 21:53 Clear 68 20 51 10.6 55 55 N 6 9 30.19 1022 10 16 0.00 0.00
10:53 pm 22:53 Clear 68 20 53 11.7 59 59 N 3 6 30.19 1022 10 16 0.00 0.00
11:53 pm 23:53 Clear 67 19.4 54 12.2 63 63 Calm 30.20 1023 10 16 0.00 0.00

Powered by AerisWeather